DW6558 Weather Reports


Display with metric or nautical units.
time (UTC)temp
F
wind
direction
speed
MPH
gust
MPH
rain 1hr
in
rain 24hr
in
rain mn
in
humidity
%
barometer
mb
20260506132035 30 95 7.0 9.0 0.00 0.00 0.00 87 931.0
20260506131532 30 108 5.0 9.0 0.00 0.00 0.00 87 930.9
20260506131028 30 122 5.0 8.0 0.00 0.00 0.00 87 930.7
20260506130525 30 109 4.0 9.0 0.00 0.00 0.00 87 930.8
20260506130023 30 91 7.0 10.0 0.00 0.00 0.00 87 930.3
20260506125521 30 90 9.0 10.0 0.00 0.00 0.00 88 930.8
20260506125018 30 112 7.0 10.0 0.00 0.00 0.00 88 930.5
20260506124516 30 92 6.0 9.0 0.00 0.00 0.00 89 930.4
20260506124014 30 110 4.0 7.0 0.00 0.00 0.00 89 930.3
20260506123512 30 79 4.0 7.0 0.00 0.00 0.00 89 930.5
20260506123009 30 65 5.0 8.0 0.00 0.00 0.00 89 930.3
20260506122506 29 101 7.0 8.0 0.00 0.00 0.00 89 930.2
20260506122004 29 87 3.0 9.0 0.00 0.00 0.00 90 930.0
20260506121501 28 72 6.0 7.0 0.00 0.00 0.00 91 929.9
20260506120957 27 95 6.0 8.0 0.00 0.00 0.00 91 930.0
20260506120455 27 71 0.0 0.0 0.00 0.00 0.00 91 930.0
20260506115952 27 82 2.0 5.0 0.00 0.00 0.00 91 930.1
20260506115450 27 76 3.0 6.0 0.00 0.00 0.00 91 929.7
20260506114948 27 78 3.0 5.0 0.00 0.00 0.00 91 929.9
20260506114445 27 71 4.0 6.0 0.00 0.00 0.00 91 929.6
20260506113944 27 62 3.0 6.0 0.00 0.00 0.00 91 929.9
20260506113442 27 69 2.0 5.0 0.00 0.00 0.00 90 929.7
20260506112937 27 63 1.0 2.0 0.00 0.00 0.00 90 929.7
20260506112435 27 67 1.0 3.0 0.00 0.00 0.00 90 929.5
20260506111932 28 81 4.0 5.0 0.00 0.00 0.00 89 929.6
20260506111430 28 63 0.0 3.0 0.00 0.00 0.00 89 929.5
20260506110927 29 46 2.0 3.0 0.00 0.00 0.00 89 929.3
20260506110425 29 34 0.0 2.0 0.00 0.00 0.00 89 929.3
20260506105921 29 37 2.0 6.0 0.00 0.00 0.00 88 929.3
20260506105418 29 39 3.0 8.0 0.00 0.00 0.00 88 929.6
20260506104915 29 60 4.0 8.0 0.00 0.00 0.00 88 929.2
20260506104413 29 56 4.0 8.0 0.00 0.00 0.00 88 929.3
20260506103911 29 89 6.0 9.0 0.00 0.00 0.00 87 929.5
20260506103408 29 61 6.0 13.0 0.00 0.00 0.00 88 929.3
20260506102905 29 72 9.0 11.0 0.00 0.00 0.00 88 929.4
20260506102404 29 65 3.0 6.0 0.00 0.00 0.00 88 929.3
20260506101901 30 61 0.0 3.0 0.00 0.00 0.00 87 929.1
20260506101357 30 61 3.0 5.0 0.00 0.00 0.00 87 929.2
20260506100854 30 114 5.0 8.0 0.00 0.00 0.00 87 929.1
20260506100353 30 109 6.0 9.0 0.00 0.00 0.00 87 929.2
20260506095850 30 118 5.0 9.0 0.00 0.00 0.00 87 929.4
20260506095348 30 61 0.0 0.0 0.00 0.00 0.00 88 929.2
20260506094844 31 74 0.0 2.0 0.00 0.00 0.00 88 929.1
20260506094343 31 69 3.0 6.0 0.00 0.00 0.00 87 929.3
20260506093841 31 61 2.0 7.0 0.00 0.00 0.00 87 929.1
20260506093338 31 137 9.0 11.0 0.00 0.00 0.00 88 929.2
20260506092835 31 138 9.0 9.0 0.00 0.00 0.00 89 929.2
20260506092334 31 106 6.0 15.0 0.00 0.00 0.00 89 929.3
20260506091830 30 98 10.0 14.0 0.00 0.00 0.00 91 929.6
20260506091328 30 87 8.0 13.0 0.00 0.00 0.00 91 929.5
20260506090825 30 121 11.0 17.0 0.00 0.00 0.00 92 929.4
20260506090322 30 36 8.0 11.0 0.00 0.00 0.00 92 929.5
20260506085819 30 67 6.0 11.0 0.00 0.00 0.00 92 929.6
20260506085315 30 80 6.0 11.0 0.00 0.00 0.00 93 929.5
20260506084811 31 126 9.0 14.0 0.00 0.00 0.00 93 929.5
20260506084308 30 95 7.0 15.0 0.00 0.00 0.00 93 929.6
20260506083805 31 89 12.0 16.0 0.00 0.00 0.00 93 929.5
20260506083302 30 79 7.0 8.0 0.00 0.00 0.00 93 929.6
20260506082759 31 107 4.0 8.0 0.00 0.00 0.00 93 929.5
20260506082255 30 143 8.0 13.0 0.00 0.00 0.00 93 929.5
20260506081753 31 95 7.0 13.0 0.00 0.00 0.00 92 929.4
20260506081250 31 96 9.0 18.0 0.00 0.00 0.00 91 929.3
20260506080748 31 112 12.0 18.0 0.00 0.00 0.00 90 929.3
20260506080244 31 107 10.0 15.0 0.00 0.00 0.00 89 928.9
20260506073228 31 111 17.0 24.0 0.00 0.00 0.00 93 928.7
20260506072725 31 114 13.0 25.0 0.00 0.00 0.00 94 928.6
20260506072223 31 105 14.0 22.0 0.00 0.00 0.00 95 928.4
20260506071720 31 72 18.0 25.0 0.00 0.00 0.00 95 928.5
20260506071218 31 104 16.0 31.0 0.00 0.00 0.00 96 928.3
20260506070714 31 103 20.0 27.0 0.00 0.00 0.00 96 928.5
20260506070212 31 103 12.0 15.0 0.00 0.00 0.00 97 928.1
20260506062148 33 68 18.0 30.0 0.00 0.00 0.00 96 927.1
20260506061644 33 69 12.0 26.0 0.00 0.00 0.00 96 927.0
20260506061142 34 103 15.0 22.0 0.00 0.00 0.00 96 927.0
20260506060640 34 93 9.0 24.0 0.00 0.00 0.00 95 926.8
20260506060137 34 69 8.0 25.0 0.00 0.00 0.00 95 926.8
20260506051109 37 80 9.0 16.0 0.00 0.39 0.39 90 926.1
20260506050607 37 53 9.0 29.0 0.00 0.39 0.39 90 925.6
20260506050104 37 85 7.0 17.0 0.00 0.39 0.39 91 925.9
20260506045057 37 56 15.0 23.0 0.00 0.39 0.39 92 925.9
20260506044555 38 67 13.0 22.0 0.00 0.39 0.39 92 925.5
20260506044052 38 71 17.0 24.0 0.00 0.39 0.39 92 925.5
20260506043549 39 58 10.0 26.0 0.00 0.39 0.39 91 925.4
20260506043047 40 85 15.0 23.0 0.00 0.39 0.39 91 925.6
20260506042546 40 75 9.0 18.0 0.00 0.39 0.39 91 925.5
20260506042044 40 63 8.0 17.0 0.00 0.39 0.39 90 925.4
20260506041542 41 85 16.0 18.0 0.00 0.39 0.39 90 925.4
20260506041038 41 84 8.0 13.0 0.00 0.39 0.39 89 925.1
20260506040536 41 79 10.0 15.0 0.00 0.39 0.39 89 924.9
20260506040032 41 47 10.0 13.0 0.00 0.39 0.39 89 925.1
20260506035529 40 87 7.0 13.0 0.00 0.39 0.39 89 925.1
20260506035026 40 96 5.0 9.0 0.00 0.39 0.39 88 924.8
20260506034524 41 66 6.0 10.0 0.00 0.39 0.39 88 924.8
20260506034020 41 70 8.0 14.0 0.00 0.39 0.39 88 924.5
20260506033518 41 73 2.0 14.0 0.00 0.39 0.39 87 924.6
20260506033015 41 67 9.0 15.0 0.00 0.39 0.39 87 924.4
20260506032512 41 52 8.0 17.0 0.00 0.39 0.39 86 924.0
20260506032008 42 51 9.0 11.0 0.00 0.39 0.39 85 924.0
20260506031506 43 48 2.0 5.0 0.00 0.39 0.39 84 923.8
20260506031003 41 71 5.0 7.0 0.00 0.39 0.39 86 923.7
20260506030501 42 71 3.0 7.0 0.00 0.39 0.39 85 923.8
20260506025958 44 50 2.0 3.0 0.00 0.39 0.39 82 923.6
20260506025454 44 94 1.0 2.0 0.00 0.39 0.39 82 923.6
20260506024951 44 197 3.0 5.0 0.00 0.39 0.39 82 923.6
20260506024448 44 140 2.0 3.0 0.00 0.39 0.39 81 923.5
20260506023943 44 87 0.0 2.0 0.00 0.39 0.39 81 923.3
20260506023441 44 83 1.0 3.0 0.00 0.39 0.39 82 923.3
20260506022937 44 81 4.0 5.0 0.00 0.39 0.39 83 923.3
20260506022435 44 46 2.0 2.0 0.00 0.39 0.39 82 923.1
20260506021933 45 144 3.0 5.0 0.00 0.39 0.39 81 923.1
20260506021430 45 69 1.0 1.0 0.00 0.39 0.39 80 923.2
20260506020927 45 21 1.0 2.0 0.00 0.39 0.39 79 923.6
20260506020425 45 25 0.0 2.0 0.00 0.39 0.39 79 923.5
20260506015921 45 90 1.0 2.0 0.00 0.39 0.39 79 923.5
20260506015419 46 77 0.0 2.0 0.00 0.39 0.39 78 923.3
20260506014916 46 47 0.0 1.0 0.00 0.39 0.39 78 923.5
20260506014413 46 16 1.0 2.0 0.00 0.39 0.39 77 923.6
20260506013909 47 18 2.0 3.0 0.00 0.39 0.39 76 923.1
20260506013408 48 5 1.0 2.0 0.00 0.39 0.39 75 923.5
20260506012903 47 251 1.0 6.0 0.00 0.39 0.39 76 923.5
20260506012400 48 180 2.0 3.0 0.00 0.39 0.39 74 923.6
20260506011857 48 226 7.0 11.0 0.00 0.39 0.39 74 923.5
20260506011354 48 228 8.0 10.0 0.00 0.39 0.39 74 923.2
20260506010851 49 255 5.0 6.0 0.00 0.39 0.39 75 923.9
20260506010350 49 243 4.0 6.0 0.00 0.39 0.39 76 923.9
20260506005846 49 219 4.0 7.0 0.00 0.39 0.39 79 923.5
20260506005343 48 173 3.0 6.0 0.00 0.39 0.39 80 923.7
20260506004838 48 151 3.0 5.0 0.00 0.39 0.39 79 923.5
20260506004337 47 105 1.0 3.0 0.00 0.39 0.39 81 923.6
20260506003833 47 203 3.0 5.0 0.00 0.39 0.39 82 923.5
20260506003329 47 219 1.0 3.0 0.00 0.39 0.39 84 923.6
20260506002825 47 117 4.0 5.0 0.00 0.39 0.39 82 923.7
20260506002322 47 93 0.0 2.0 0.00 0.39 0.39 82 923.7
20260506001817 47 64 0.0 2.0 0.00 0.39 0.39 82 923.2
20260506001315 47 115 1.0 5.0 0.07 0.39 0.39 81 923.6
20260506000812 47 7 2.0 3.0 0.07 0.39 0.39 79 923.3
20260506000310 47 11 1.0 3.0 0.05 0.38 0.38 79 923.5
20260505235806 48 205 6.0 11.0 0.12 0.38 0.38 82 923.7
20260505235305 49 174 5.0 7.0 0.07 0.37 0.37 81 923.6
20260505234800 50 148 1.0 9.0 0.00 0.36 0.36 78 923.5
20260505234258 49 314 4.0 7.0 0.00 0.36 0.36 72 923.5
20260505233755 50 217 6.0 13.0 0.00 0.36 0.36 75 923.5
20260505233253 50 243 6.0 7.0 0.00 0.36 0.36 74 923.8
20260505232750 50 254 6.0 8.0 0.00 0.36 0.36 74 923.6
20260505232247 50 210 5.0 8.0 0.00 0.36 0.36 73 923.8
20260505231743 50 245 4.0 10.0 0.00 0.36 0.36 73 923.7
20260505231242 50 255 7.0 9.0 0.00 0.36 0.36 72 923.8
20260505230740 51 274 5.0 8.0 0.00 0.36 0.36 71 924.0
20260505230237 51 283 7.0 10.0 0.00 0.36 0.36 72 923.9
20260505225733 50 223 5.0 7.0 0.00 0.36 0.36 73 923.9
20260505225230 50 226 6.0 7.0 0.00 0.36 0.36 73 924.1
20260505224725 50 0 4.0 7.0 0.00 0.36 0.36 73 924.1
20260505224224 49 188 4.0 13.0 0.00 0.36 0.36 74 924.4
20260505223721 49 234 6.0 8.0 0.00 0.36 0.36 73 924.3
20260505223217 49 218 3.0 10.0 0.00 0.36 0.36 74 924.3
20260505222713 48 200 4.0 6.0 0.00 0.36 0.36 75 924.4
20260505222209 48 230 5.0 7.0 0.00 0.36 0.36 76 924.3
20260505221707 48 245 5.0 8.0 0.00 0.36 0.36 76 924.3
20260505221203 48 250 4.0 9.0 0.00 0.36 0.36 76 924.6
20260505220700 49 259 4.0 7.0 0.00 0.36 0.36 75 924.3
20260505220158 48 275 3.0 8.0 0.00 0.36 0.36 74 924.8
20260505215655 49 236 5.0 10.0 0.00 0.36 0.36 73 924.6
20260505215153 48 272 4.0 9.0 0.00 0.36 0.36 76 924.7
20260505214651 48 219 3.0 6.0 0.00 0.36 0.36 77 924.8
20260505214148 48 347 3.0 5.0 0.00 0.36 0.36 77 924.6
20260505213645 47 250 1.0 5.0 0.00 0.36 0.36 77 924.8
20260505213142 47 335 3.0 6.0 0.00 0.36 0.36 77 924.7
20260505212638 48 315 2.0 3.0 0.00 0.36 0.36 76 924.8
20260505212136 47 226 3.0 7.0 0.00 0.36 0.36 75 924.8
20260505211632 47 199 3.0 6.0 0.00 0.36 0.36 77 924.9
20260505211130 46 120 2.0 5.0 0.00 0.36 0.36 78 924.7
20260505210626 46 208 3.0 7.0 0.00 0.36 0.36 78 924.6
20260505210123 46 216 3.0 5.0 0.00 0.36 0.36 78 924.8
20260505205621 46 227 3.0 7.0 0.00 0.36 0.36 77 925.1
20260505205119 45 337 6.0 8.0 0.00 0.36 0.36 78 925.1
20260505204615 45 182 3.0 5.0 0.00 0.36 0.36 81 925.3
20260505204113 44 333 4.0 6.0 0.00 0.36 0.36 85 925.2
20260505203609 43 273 5.0 6.0 0.00 0.36 0.36 87 925.2
20260505203107 43 169 3.0 3.0 0.00 0.36 0.36 89 925.4
20260505202602 42 311 2.0 6.0 0.00 0.36 0.36 91 925.7
20260505202058 41 337 2.0 6.0 0.00 0.36 0.36 92 925.4
20260505201555 41 238 3.0 6.0 0.00 0.36 0.36 92 925.4
20260505201053 42 27 1.0 2.0 0.00 0.36 0.36 93 925.4
20260505200550 41 300 2.0 3.0 0.00 0.36 0.36 93 925.3
20260505200047 42 261 1.0 5.0 0.00 0.36 0.36 92 925.3
20260505195543 42 192 3.0 6.0 0.00 0.36 0.36 92 925.6
20260505195041 42 22 0.0 0.0 0.00 0.36 0.36 93 925.4
20260505194538 42 329 1.0 2.0 0.00 0.36 0.36 93 925.2
20260505194033 42 89 3.0 3.0 0.00 0.36 0.36 93 925.2
20260505193531 41 147 4.0 7.0 0.00 0.36 0.36 94 925.2
20260505193028 41 93 2.0 3.0 0.00 0.36 0.36 94 925.1
20260505192526 40 167 2.0 5.0 0.07 0.36 0.36 95 925.4
20260505192024 40 127 3.0 6.0 0.12 0.36 0.36 95 925.4
20260505191522 40 122 3.0 3.0 0.12 0.35 0.35 95 925.5
20260505191020 39 87 2.0 3.0 0.19 0.34 0.34 95 925.5
20260505190514 39 61 1.0 3.0 0.24 0.33 0.33 95 925.7
20260505190010 40 80 1.0 2.0 0.24 0.31 0.31 96 925.6
20260505185507 39 76 0.0 0.0 0.24 0.29 0.29 96 925.9
20260505185003 38 37 0.0 0.0 0.26 0.26 0.26 96 925.3
20260505184500 38 39 0.0 0.0 0.31 0.24 0.24 96 925.6
20260505183957 38 49 0.0 0.0 0.19 0.21 0.21 96 925.6
20260505183454 37 46 0.0 0.0 0.19 0.19 0.19 96 925.7
20260505182950 37 53 0.0 0.0 0.19 0.17 0.17 96 925.4
20260505182447 37 50 0.0 0.0 0.17 0.16 0.16 96 925.5
20260505181944 36 55 0.0 0.0 0.05 0.14 0.14 96 925.7
20260505181441 36 71 0.0 0.0 0.00 0.13 0.13 96 925.7
20260505180938 36 90 0.0 0.0 0.00 0.13 0.13 96 925.6
20260505180434 36 87 2.0 3.0 0.00 0.13 0.13 96 925.5
20260505175931 36 80 1.0 3.0 0.00 0.13 0.13 96 925.6
20260505175427 36 100 1.0 2.0 0.00 0.13 0.13 95 925.4
20260505174924 36 98 1.0 2.0 0.00 0.13 0.13 95 925.7
20260505174422 35 140 2.0 2.0 0.00 0.13 0.13 95 925.7
20260505173917 35 119 2.0 3.0 0.00 0.13 0.13 95 925.5
20260505173414 35 122 0.0 2.0 0.00 0.13 0.13 95 925.9
20260505172911 35 96 1.0 2.0 0.00 0.13 0.13 95 925.7
20260505172409 35 60 0.0 1.0 0.00 0.13 0.13 95 925.7
20260505171908 35 82 2.0 2.0 0.00 0.13 0.13 95 925.7
20260505171405 35 54 3.0 3.0 0.00 0.13 0.13 95 925.6
20260505170902 35 51 3.0 5.0 0.07 0.13 0.13 95 925.7
20260505170359 36 65 1.0 8.0 0.07 0.13 0.13 95 925.4
20260505165854 36 37 1.0 9.0 0.07 0.12 0.12 95 925.6
20260505165350 36 63 2.0 7.0 0.12 0.12 0.12 95 925.4
20260505164846 36 79 1.0 6.0 0.05 0.11 0.11 95 925.5
20260505164342 36 80 3.0 6.0 0.07 0.10 0.10 95 925.7
20260505163841 36 70 3.0 7.0 0.07 0.10 0.10 95 925.6
20260505163339 36 67 2.0 2.0 0.00 0.09 0.09 94 926.3
20260505162838 36 70 2.0 6.0 0.00 0.09 0.09 94 926.2
20260505162333 35 68 5.0 7.0 0.00 0.09 0.09 94 926.5
20260505161831 35 78 4.0 6.0 0.00 0.09 0.09 94 926.7
20260505161328 35 41 1.0 3.0 0.00 0.09 0.09 93 927.0
20260505160825 36 49 4.0 6.0 0.00 0.09 0.09 93 926.5
20260505160323 36 61 4.0 9.0 0.00 0.09 0.09 92 925.6
20260505153301 40 37 7.0 10.0 0.00 0.04 0.04 88 924.8
20260505152800 40 81 5.0 9.0 0.00 0.04 0.04 88 924.8
20260505152256 40 36 5.0 7.0 0.00 0.04 0.04 87 924.7
20260505151755 40 71 6.0 9.0 0.00 0.04 0.04 88 924.7
20260505151253 40 104 5.0 7.0 0.00 0.04 0.04 88 924.3
20260505150750 40 106 5.0 8.0 0.00 0.04 0.04 89 924.6
20260505150247 40 114 5.0 6.0 0.00 0.04 0.04 89 924.6
20260505140211 40 70 2.0 7.0 0.00 0.03 0.03 88 924.7